Showing default

IRIDIUM 120, 42805

Orbit data source: Space-Track

IRIDIUM 120, 42805 is a payload satellite owned by Iridium (US) in LEO that was launched on Sun, 25 Jun 2017 UTC via an FALCON 9 launch vehicle from the Air Force Western Test Range (AFWTR). Payload-class satellites include a variety of spacecraft equipped with specific instruments for various scientific and technological missions. These include communications satellites like Starlink; space stations such as the ISS; scientific satellites like the Hubble; Earth observation satellites from companies like Planet Labs, Umbra, and HawkEye 360; GPS; miniature CubeSats for education and research; and military/defense satellites.

Loading next visibility...
Identifier
42805, 2017-039C
Orbit
LEO
Country
Flag of USUS
Related business
Manufacturer
OATK SSG Gilbert
Mission
Operational Commercial Communications
Bus & Motor
ELITEBUS, Unknown motor
Mass
860 kg wet, 700 kg dry
Launch date (UTC)
2017-06-25 (8 years ago)
Launch vehicle
FALCON 9
Launch site
Air Force Western Test Range (AFWTR)
Object type
Payload
Rocket body
Debris
Shape & HBR
Trap Box + 2 Pan, 4.8 m
Radar Cross Section
10.154 m², Large (>1 m²)

Expand to show TLE details & history
Last TLE update: 10 hours ago

TLE from 10 hours ago
0 IRIDIUM 120
1 42805U 17039C   25346.88230565  .00000311  00000-0  10381-3 0  9997
2 42805  86.3964  39.8418 0002478  98.4526 261.6951 14.34217883444479
Epoch: 2025-12-12T21:10Z
TLE epoch observation values (Epoch: 2025-12-12T21:10:31.208Z)
Latitude
0.00002°
Longitude
0.39421°
Altitude
780.974 km
Speed
7.463 km/s
True Right ascension
02h 39m 22s
True Declination
0° 00' 00"
Sunlit
Object was in full shadow at epoch
Visualization orbit readout
Latitude
Unknown
Longitude
Unknown
Altitude
Unknown
Speed
Unknown
Apparent Right ascension
Unknown
Apparent Declination
Unknown
Sunlit
N/A
Visualization observer readout
Local Sidereal Time
05:22:59
Azimuth
Unknown
Elevation
Unknown
Doppler factor
Unknown
Orbital elements
Apogee altitude
776.404 km
Perigee altitude
772.859 km
Semi-major axis
7,152.768 km
Eccentricity
0.00025
Inclination
86.3964°
RAAN
39.8418°
Arg. of periapsis
98.4526°
True anomaly
261.667°
Mean anomaly
261.6951°
Eccentric anomaly
261.68105°
Mean motion
3.58783 °/min
Orbital period
100.34 mins
BSTAR
0.00010381
Loading maneuver chart data...
Computing Atmospheric mass density...
Loading historical data...
Loading historical data...
Loading historical data...
Loading historical data...
Loading historical data...
Loading historical data...
Loading historical data...

Documentation

Showing up to 5 results
|